Home   Weather   Tucson   Past weeks
Flag for USA

Past Weather in Tucson, Arizona, USA — Yesterday and Last 2 Weeks

Now
74 °F

Clear.


Feels Like: 76 °F
Forecast: 100 / 72 °F
Wind: 8 mph from South

Location: Davis-Monthan Air Force Base
Current Time: Sep 25, 2020 at 4:26:49 am
Latest Report: Sep 25, 2020 at 2:58 am
Visibility: 10 mi
Pressure29.81 "Hg
Humidity: 27%
Dew Point: 38 °F
Location of TucsonLocation

Past Weather in Tucson — Graph

°F

Tucson Temperature Yesterday

Maximum temperature yesterday: 100 °F (at 2:50 pm)
Minimum temperature yesterday: 69 °F (at 5:58 am)
Average temperature yesterday: 85 °F

High & Low Weather Summary for the Past Weeks

 TemperatureHumidityPressure
High101 °F (Sep 17, 3:58 pm)54% (Sep 12, 5:58 am)30.11 "Hg (Sep 12, 5:58 am)
Low58 °F (Sep 10, 5:58 am)8% (Sep 10, 3:58 pm)29.72 "Hg (Sep 19, 4:58 pm)
Average84 °F24%29.87 "Hg
* Reported Sep 10 2:58 am — Sep 25 2:58 am, Tucson. Weather by CustomWeather, © 2020

Note: Actual official high and low records may vary slightly from our data, if they occured in-between our weather recording intervals... More about our weather records

Tucson Weather History for the Previous 24 Hours

Scroll right to see more
 ConditionsComfort  
Time TempWeatherWind HumidityBarometerVisibility
2:58 am
Fri, Sep 25
74 °FClear.8 mph27%29.81 "Hg10 mi
1:58 am74 °FClear.7 mph27%29.80 "Hg10 mi
12:58 am78 °FClear.3 mph25%29.79 "Hg10 mi
10:58 pm
Thu, Sep 24
80 °FClear.7 mph23%29.78 "Hg10 mi
9:58 pm82 °FClear.No wind22%29.77 "Hg10 mi
8:58 pm86 °FClear.5 mph19%29.76 "Hg10 mi
7:58 pm89 °FClear.8 mph18%29.75 "Hg10 mi
6:58 pm91 °FClear.8 mph16%29.75 "Hg10 mi
5:58 pm96 °FSunny.12 mph14%29.75 "Hg10 mi
4:58 pm98 °FSunny.13 mph13%29.74 "Hg10 mi
3:58 pm99 °FSunny.12 mph12%29.74 "Hg10 mi
2:58 pm99 °FSunny.7 mph12%29.76 "Hg10 mi
2:50 pm100 °FSunny.12 mph11%29.76 "Hg10 mi
1:58 pm99 °FSunny.10 mph13%29.78 "Hg10 mi
12:58 pm97 °FSunny.6 mph14%29.81 "Hg10 mi
10:58 am92 °FSunny.No wind17%29.86 "Hg10 mi
9:58 am87 °FSunny.No wind20%29.88 "Hg10 mi
8:58 am84 °FSunny.5 mph22%29.89 "Hg10 mi
7:58 am79 °FSunny.7 mph25%29.89 "Hg10 mi
6:58 am70 °FSunny.6 mph32%29.87 "Hg10 mi
5:58 am69 °FClear.9 mph33%29.86 "Hg10 mi
4:58 am69 °FClear.7 mph32%29.85 "Hg10 mi
Weather by CustomWeather, © 2020

See weather overview